Overview Statistics Trail Chart Weather Telemetry Raw packets
 

This is the latest recevied weather packets stored in our database for station/object KC3JUG-13. If no packets are shown the sender has not sent any weather packets the latest 10 day(s).

<< 5 6 7 8 9 10 11 >>
Time Temp. Humidity Pressure Rain* Wind** Luminosity Snow
1788508885 22.22° C 88% 1014.5 hPa 0 mm - - -
1788508105 22.22° C 88% 1014.5 hPa 0 mm - - -
1788507325 22.22° C 88% 1014.6 hPa 0 mm - - -
1788506545 22.78° C 89% 1014.6 hPa 0 mm - - -
1788505765 22.78° C 90% 1014.4 hPa 0 mm - - -
1788504985 22.78° C 91% 1013.9 hPa 0 mm - - -
1788504205 22.78° C 92% 1013.6 hPa 0 mm - - -
1788503438 23.33° C 92% 1013.4 hPa 0 mm - - -
1788502645 23.33° C 93% 1013.1 hPa 0 mm - - -
1788501865 23.33° C 94% 1013.2 hPa 0 mm - - -
1788501085 23.33° C 94% 1013.5 hPa 0 mm - - -
1788500305 23.33° C 94% 1014.1 hPa 0 mm - - -
1788499525 23.89° C 94% 1014.3 hPa 0 mm - - -
1788498745 23.89° C 93% 1014.3 hPa 0 mm - - -
1788497965 24.44° C 91% 1013.9 hPa 0 mm - - -
1788497185 25° C 90% 1013.9 hPa 0 mm - - -
1788496405 25° C 89% 1014 hPa 0 mm - - -
1788495625 25.56° C 88% 1014.1 hPa 0 mm - - -
1788494845 25.56° C 88% 1014.4 hPa 0 mm - - -
1788494065 25.56° C 88% 1014.6 hPa 0 mm - - -
1788493285 25° C 90% 1014.9 hPa 0 mm - - -
1788492505 25° C 89% 1014.7 hPa 0 mm - - -
1788491725 25° C 89% 1015.2 hPa 0 mm - - -
1788490945 25° C 89% 1015.4 hPa 0 mm - - -
1788490165 25.56° C 88% 1015.4 hPa 0 mm - - -

* Rain latest hour (hover to see other rain measurements)
** Current wind speed in m/s (hover to see current wind gust speed)